Weather History for Copper Harbor, MI

Change the Weather History Date:

Monday, July 16, 2012

  Actual Average Record
Temperature  
Mean Temperature 75 °F -  
Max Temperature 90 °F 69 °F 91 °F (2002)
Min Temperature 64 °F 53 °F 50 °F (2003)
Cooling Degree Days 10    
Growing Degree Days 25 (Base 50)    
Moisture  
Dew Point 67 °F    
Average Humidity 87    
Maximum Humidity 100    
Minimum Humidity 61    
Precipitation  
Precipitation 0.02 in - - ()
Sea Level Pressure  
Sea Level Pressure 29.76 in    
Wind  
Wind Speed 4 mph (West)    
Max Wind Speed 20 mph    
Max Gust Speed 24 mph    
Averages and records for this station are not official NWS values.
T = Trace of Precipitation, MM = Missing Value Source: NWS Daily Summary

Daily Weather History Graph

Daily Weather History Graph

Search for Another Location

Airport:

Trip Planner

Search our weather history database for the weather conditions in past years. The results will help you decide how hot, cold, wet, or windy it might be!

Date:

Astronomy

Jul. 16, 2012 Rise Set
Actual Time 6:11 AM EDT 9:43 PM EDT
Civil Twilight 5:32 AM EDT 10:21 PM EDT
Nautical Twilight 4:41 AM EDT 11:12 PM EDT
Astronomical Twilight 3:32 AM EDT 12:20 AM EDT
Moon 3:54 AM EDT (7/16) 7:48 PM EDT (7/16)
Length of Visible Light 16h 48m
Length of Day
15h 31m
Waning Crescent, 6% of the Moon is Illuminated
Jul 16
Waning Crescent
Jul 19
New
Jul 26
First Quarter
Aug 1
Full
Aug 9
Last Quarter

Hourly Weather History & Observations

Time (EDT) Temp. Heat Index Dew Point Humidity Pressure Visibility Wind Dir Wind Speed Gust Speed Precip Events Conditions
12:51 AM 69.1 °F - 66.0 °F 90% 29.96 in - Calm Calm - N/A   Unknown
1:51 AM 70.0 °F - 66.9 °F 90% 29.96 in - Calm Calm - N/A   Unknown
2:51 AM 69.1 °F - 66.9 °F 93% 29.93 in - Calm Calm - N/A   Unknown
3:51 AM 68.0 °F - 66.0 °F 93% 29.92 in - SW 8.1 mph - N/A   Unknown
4:51 AM 68.0 °F - 66.9 °F 96% 29.89 in - SW 6.9 mph - N/A   Unknown
5:51 AM 68.0 °F - 68.0 °F 100% 29.89 in - SW 5.8 mph - N/A   Unknown
6:51 AM 69.1 °F - 68.0 °F 96% 29.89 in - Calm Calm - N/A   Unknown
7:51 AM 70.0 °F - 68.0 °F 93% 29.89 in - Calm Calm - N/A   Unknown
8:51 AM 70.0 °F - 68.0 °F 93% 29.85 in - Calm Calm - N/A   Unknown
9:51 AM 69.1 °F - 66.9 °F 93% 29.85 in - Calm Calm - N/A   Unknown
10:51 AM 69.1 °F - 66.9 °F 93% 29.83 in - South 3.5 mph - N/A   Unknown
11:51 AM 69.1 °F - 68.0 °F 96% 29.77 in - SW 6.9 mph 17.3 mph 0.02 in   Unknown
12:51 PM 73.0 °F - 69.1 °F 87% 29.71 in - SSW 8.1 mph - N/A   Unknown
1:51 PM 75.9 °F - 69.1 °F 79% 29.66 in - SW 6.9 mph 16.1 mph N/A   Unknown
2:51 PM 81.0 °F 84.1 °F 69.1 °F 67% 29.62 in - WSW 10.4 mph 17.3 mph N/A   Unknown
3:51 PM 86.0 °F 91.5 °F 71.1 °F 61% 29.60 in - Variable 5.8 mph - N/A   Unknown
4:51 PM 81.0 °F 84.1 °F 69.1 °F 67% 29.59 in - North 19.6 mph 24.2 mph N/A   Unknown
5:51 PM 78.1 °F - 69.1 °F 74% 29.59 in - North 12.7 mph - N/A   Unknown
6:51 PM 78.1 °F - 68.0 °F 71% 29.60 in - North 9.2 mph - N/A   Unknown
7:51 PM 77.0 °F - 68.0 °F 74% 29.59 in - North 9.2 mph - N/A   Unknown
8:51 PM 66.0 °F - 64.9 °F 96% 29.62 in - NE 11.5 mph - N/A   Unknown
9:51 PM 64.9 °F - 63.0 °F 93% 29.64 in - ENE 6.9 mph - N/A   Unknown
10:51 PM 64.9 °F - 63.0 °F 93% 29.65 in - East 5.8 mph - N/A   Unknown
11:51 PM 64.9 °F - 62.1 °F 90% 29.67 in - ENE 6.9 mph - N/A   Unknown